Tri-Cities, TN

2:35 AM EST on December 16, 2019 (GMT -0500)
Tri-Cities Regional Tennessee / Virginia

Weather History for KTRI - October, 2019

Change the Weather History Date:

Monday, October 28, 2019

  Actual Average Record
Temperature  
Mean Temperature 63 °F 53 °F  
Max Temperature 79 °F 66 °F 84 °F (1991)
Min Temperature 46 °F 40 °F 25 °F (1976)
Degree Days  
Heating Degree Days 2 12  
Month to date heating degree days 146 243  
Since 1 July heating degree days 146 296  
Cooling Degree Days 0 0  
Month to date cooling degree days 67 9  
Year to date cooling degree days 1452 977  
Growing Degree Days 12 (Base 50)    
Moisture  
Dew Point 49 °F    
Average Humidity 70    
Maximum Humidity 100    
Minimum Humidity 39    
Precipitation  
Precipitation 0.00 in 0.07 in 1.05 in (1973)
Month to date precipitation 4.80 1.87  
Year to date precipitation 46.41 34.31  
Snow  
Snow 0.00 in 0.00 in - ()
Month to date snowfall 0.0 0.1  
Since 1 July snowfall 0.0 0.1  
Since 1 September snowfall 0.0 0.1  
Snow Depth 0.00 in    
Sea Level Pressure  
Sea Level Pressure 30.07 in    
Wind  
Wind Speed 1 mph (NE)    
Max Wind Speed 7 mph    
Max Gust Speed 9 mph    
Visibility 5 miles    
Events Fog    
T = Trace of Precipitation, MM = Missing Value Source: NWS Daily Summary

Daily Weather History Graph

Daily Weather History Graph

Search for Another Location

Airport or City:

Astronomy

Oct. 28, 2019 Rise Set
Actual Time 7:48 AM EDT 6:37 PM EDT
Civil Twilight 7:22 AM EDT 7:04 PM EDT
Nautical Twilight 6:51 AM EDT 7:34 PM EDT
Astronomical Twilight 6:21 AM EDT 8:04 PM EDT
Moon 8:09 AM EDT (10/28) 7:22 PM EDT (10/28)
Length of Visible Light 11h 41m
Length of Day
10h 48m
New Moon, 0% of the Moon is Illuminated
Oct 28
New Moon
Nov 4
First Quarter
Nov 12
Full
Nov 19
Last Quarter
Nov 26
New

Hourly Weather History & Observations

Time (EDT) Temp. Dew Point Humidity Pressure Visibility Wind Dir Wind Speed Gust Speed Precip Events Conditions
12:02 AM 50.0 °F 48.9 °F 96% 30.09 in 3.0 mi Calm Calm - N/A   Mist
12:53 AM 48.0 °F 46.9 °F 96% 30.04 in 3.0 mi Calm Calm - N/A   Partly Cloudy
1:00 AM 48.9 °F 46.9 °F 93% 30.08 in 2.0 mi Calm Calm - N/A   Clear
1:02 AM 48.0 °F 46.9 °F 96% 30.08 in 3.0 mi Calm Calm - N/A   Partly Cloudy
1:06 AM 48.0 °F 46.9 °F 96% 30.08 in 2.5 mi Calm Calm - N/A   Mist
1:53 AM 48.9 °F 46.9 °F 93% 30.03 in 2.5 mi North 3.5 mph - N/A   Mist
2:00 AM 48.0 °F 46.9 °F 96% 30.08 in 0.2 mi Calm Calm - N/A Fog Fog
2:53 AM 48.9 °F 48.0 °F 97% 30.04 in 0.2 mi Calm Calm - N/A Fog Fog
3:53 AM 48.0 °F 46.9 °F 96% 30.04 in 0.2 mi Calm Calm - N/A Fog Fog
4:53 AM 48.0 °F 46.9 °F 96% 30.04 in 0.2 mi Calm Calm - N/A Fog Fog
5:53 AM 46.9 °F 46.0 °F 97% 30.06 in 0.2 mi Calm Calm - N/A Fog Fog
7:10 AM 46.0 °F 45.0 °F 96% 30.11 in 0.1 mi Calm Calm - N/A Fog Fog
7:53 AM 46.9 °F 46.0 °F 97% 30.09 in 0.1 mi Calm Calm - N/A Fog Fog
8:53 AM 48.0 °F 46.0 °F 93% 30.10 in 0.1 mi Calm Calm - N/A Fog Fog
9:01 AM 48.0 °F 46.0 °F 93% 30.13 in 0.1 mi NNE 3.5 mph - N/A Fog Fog
9:03 AM 48.0 °F 46.0 °F 93% 30.14 in 0.2 mi Calm Calm - N/A Fog Fog
9:39 AM 50.0 °F 48.9 °F 96% 30.14 in 2.5 mi Calm Calm - N/A   Scattered Clouds
9:53 AM 50.0 °F 48.9 °F 96% 30.11 in 10.0 mi ENE 3.5 mph - N/A   Scattered Clouds
10:53 AM 57.9 °F 51.1 °F 78% 30.09 in 10.0 mi Variable 3.5 mph - N/A   Partly Cloudy
11:53 AM 64.0 °F 53.1 °F 67% 30.09 in 10.0 mi Calm Calm - N/A   Partly Cloudy
12:53 PM 70.0 °F 53.1 °F 55% 30.07 in 10.0 mi Calm Calm - N/A   Scattered Clouds
1:53 PM 73.9 °F 53.1 °F 48% 30.03 in 10.0 mi Variable 4.6 mph - N/A   Scattered Clouds
2:53 PM 75.9 °F 52.0 °F 43% 30.00 in 10.0 mi Calm Calm - N/A   Scattered Clouds
3:53 PM 77.0 °F 53.1 °F 43% 29.99 in 10.0 mi Calm Calm - N/A   Scattered Clouds
4:53 PM 78.1 °F 52.0 °F 40% 29.99 in 10.0 mi Calm Calm - N/A   Scattered Clouds
5:53 PM 78.1 °F 52.0 °F 40% 29.99 in 10.0 mi Calm Calm - N/A   Scattered Clouds
6:53 PM 70.0 °F 51.1 °F 51% 30.01 in 10.0 mi ESE 6.9 mph - N/A   Scattered Clouds
7:53 PM 66.9 °F 51.1 °F 57% 30.04 in 10.0 mi Calm Calm - N/A   Scattered Clouds
8:53 PM 64.0 °F 51.1 °F 63% 30.06 in 10.0 mi Calm Calm - N/A   Partly Cloudy
9:53 PM 60.1 °F 51.1 °F 72% 30.08 in 10.0 mi Calm Calm - N/A   Partly Cloudy
10:53 PM 57.0 °F 51.1 °F 81% 30.09 in 10.0 mi NNW 3.5 mph - N/A   Clear
11:53 PM 54.0 °F 50.0 °F 86% 30.09 in 10.0 mi Calm Calm - N/A   Clear